Weather History for Redding, CA

Change the Weather History Date:

Friday, November 30, 2012

  Actual Average Record
Temperature  
Mean Temperature 59 °F -  
Max Temperature 61 °F 57 °F 74 °F (2013)
Min Temperature 57 °F 38 °F 30 °F (2006)
Degree Days  
Heating Degree Days 6    
Cooling Degree Days 0    
Growing Degree Days 8 (Base 50)    
Moisture  
Dew Point 53 °F    
Average Humidity 84    
Maximum Humidity 96    
Minimum Humidity 71    
Precipitation  
Precipitation 0.30 in 0.21 in 1.46 in (1987)
Month to date precipitation 6.77 4.48  
Year to date precipitation 26.41 28.35  
Since 1 July precipitation 9.12 7.49  
Sea Level Pressure  
Sea Level Pressure 29.74 in    
Wind  
Wind Speed 27 mph (South)    
Max Wind Speed 40 mph    
Max Gust Speed 51 mph    
Visibility 10 miles    
Events Rain    
T = Trace of Precipitation, MM = Missing Value Source: NWS Daily Summary

Daily Weather History Graph

Daily Weather History Graph

Search for Another Location

Airport:

Trip Planner

Search our weather history database for the weather conditions in past years. The results will help you decide how hot, cold, wet, or windy it might be!

Date:

Astronomy

Nov. 30, 2012 Rise Set
Actual Time 7:12 AM PST 4:43 PM PST
Civil Twilight 6:42 AM PST 5:13 PM PST
Nautical Twilight 6:08 AM PST 5:47 PM PST
Astronomical Twilight 5:35 AM PST 6:20 PM PST
Moon 6:42 PM PST (11/30) 8:48 AM PST (11/30)
Length of Visible Light 10h 30m
Length of Day
9h 30m
Waning Gibbous, 96% of the Moon is Illuminated
Nov 30
Waning Gibbous
Dec 6
Last Quarter
Dec 13
New
Dec 19
First Quarter
Dec 28
Full

Hourly Weather History & Observations

Time (PST) Temp. Dew Point Humidity Pressure Visibility Wind Dir Wind Speed Gust Speed Precip Events Conditions
12:53 AM 57.0 °F 55.9 °F 96% 29.62 in 4.0 mi South 34.5 mph 50.6 mph 0.22 in Rain Rain
1:42 AM 57.2 °F 55.4 °F 94% 29.62 in 10.0 mi South 31.1 mph 42.6 mph 0.07 in   Overcast
1:53 AM 57.9 °F 55.0 °F 90% 29.61 in 10.0 mi South 34.5 mph 42.6 mph 0.07 in Rain Light Rain
2:12 AM 57.2 °F 55.4 °F 94% 29.63 in 10.0 mi South 34.5 mph 46.0 mph 0.00 in Rain Light Rain
2:53 AM 57.9 °F 55.0 °F 90% 29.64 in 10.0 mi South 27.6 mph 36.8 mph 0.03 in Rain Light Rain
3:53 AM 57.9 °F 55.0 °F 90% 29.60 in 10.0 mi South 28.8 mph 40.3 mph 0.03 in   Overcast
4:53 AM 57.9 °F 54.0 °F 87% 29.61 in 10.0 mi South 23.0 mph 32.2 mph N/A   Overcast
5:53 AM 57.9 °F 54.0 °F 87% 29.63 in 10.0 mi South 24.2 mph 35.7 mph 0.00 in   Overcast
6:53 AM 57.9 °F 54.0 °F 87% 29.66 in 10.0 mi South 20.7 mph 36.8 mph 0.00 in   Overcast
7:53 AM 57.9 °F 54.0 °F 87% 29.67 in 10.0 mi South 24.2 mph 29.9 mph N/A   Mostly Cloudy
8:53 AM 57.9 °F 54.0 °F 87% 29.69 in 10.0 mi South 23.0 mph 32.2 mph N/A   Overcast
9:53 AM 59.0 °F 54.0 °F 83% 29.71 in 10.0 mi South 24.2 mph 32.2 mph N/A   Mostly Cloudy
10:01 AM 57.2 °F 53.6 °F 88% 29.71 in 10.0 mi South 20.7 mph 28.8 mph N/A   Mostly Cloudy
10:53 AM 59.0 °F 55.0 °F 87% 29.72 in 10.0 mi South 19.6 mph 31.1 mph N/A   Overcast
11:48 AM 59.0 °F 55.4 °F 88% 29.73 in 10.0 mi South 21.9 mph 26.5 mph 0.00 in   Overcast
11:53 AM 59.0 °F 54.0 °F 83% 29.72 in 10.0 mi South 20.7 mph 29.9 mph 0.00 in   Overcast
12:49 PM 60.8 °F 53.6 °F 77% 29.74 in 10.0 mi South 18.4 mph 25.3 mph N/A   Overcast
12:53 PM 60.1 °F 54.0 °F 80% 29.73 in 10.0 mi South 21.9 mph 27.6 mph N/A   Overcast
1:07 PM 60.8 °F 53.6 °F 77% 29.74 in 10.0 mi South 18.4 mph 25.3 mph N/A   Overcast
1:53 PM 60.1 °F 54.0 °F 80% 29.73 in 10.0 mi South 15.0 mph 27.6 mph N/A   Mostly Cloudy
2:53 PM 59.0 °F 52.0 °F 78% 29.74 in 10.0 mi South 26.5 mph 32.2 mph N/A   Mostly Cloudy
3:53 PM 57.9 °F 51.1 °F 78% 29.76 in 10.0 mi South 21.9 mph 36.8 mph 0.00 in   Mostly Cloudy
4:53 PM 57.9 °F 51.1 °F 78% 29.76 in 10.0 mi South 25.3 mph 36.8 mph 0.00 in   Partly Cloudy
5:49 PM 57.2 °F 51.8 °F 82% 29.79 in 10.0 mi SSE 25.3 mph 31.1 mph N/A   Mostly Cloudy
5:53 PM 57.9 °F 52.0 °F 81% 29.79 in 10.0 mi South 23.0 mph 31.1 mph N/A   Mostly Cloudy
6:53 PM 57.0 °F 52.0 °F 83% 29.80 in 10.0 mi South 25.3 mph 35.7 mph N/A   Mostly Cloudy
7:05 PM 57.2 °F 51.8 °F 82% 29.81 in 10.0 mi South 24.2 mph 28.8 mph N/A   Mostly Cloudy
7:14 PM 57.2 °F 51.8 °F 82% 29.81 in 10.0 mi South 25.3 mph 34.5 mph N/A   Mostly Cloudy
7:30 PM 57.2 °F 51.8 °F 82% 29.81 in 10.0 mi South 28.8 mph 38.0 mph N/A   Mostly Cloudy
7:53 PM 57.2 °F 51.8 °F 82% 29.81 in 10.0 mi South 29.9 mph 36.8 mph N/A   Mostly Cloudy
8:53 PM 57.2 °F 51.8 °F 82% 29.85 in 10.0 mi South 21.9 mph 29.9 mph N/A   Overcast
9:27 PM 55.4 °F 51.8 °F 88% 29.84 in 10.0 mi South 20.7 mph 29.9 mph N/A   Overcast
9:53 PM 55.9 °F 51.1 °F 84% 29.83 in 10.0 mi South 23.0 mph 28.8 mph 0.00 in Rain Light Rain
10:04 PM 55.4 °F 51.8 °F 88% 29.84 in 10.0 mi SSE 16.1 mph 26.5 mph 0.00 in   Overcast
10:53 PM 55.9 °F 52.0 °F 87% 29.83 in 10.0 mi South 24.2 mph 32.2 mph 0.00 in   Overcast
11:26 PM 55.4 °F 51.8 °F 88% 29.82 in 10.0 mi SSE 28.8 mph 35.7 mph 0.00 in Rain Light Rain
11:40 PM 55.4 °F 51.8 °F 88% 29.83 in 10.0 mi South 24.2 mph 38.0 mph 0.00 in   Overcast
11:48 PM 55.4 °F 51.8 °F 88% 29.83 in 10.0 mi South 21.9 mph 32.2 mph 0.00 in   Overcast
11:53 PM 55.9 °F 52.0 °F 87% 29.83 in 10.0 mi South 20.7 mph 28.8 mph 0.00 in   Overcast